This is the latest recevied weather packets stored in our database for station/object YB3RDW-13. If no packets are shown the sender has not sent any weather packets the latest 10 day(s).
| Time | Temp. | Humidity | Pressure | Rain* | Wind** | Luminosity | Snow |
|---|---|---|---|---|---|---|---|
| 1777420017 | 26.67° C | 97% | 1013 hPa | 0 mm | - | 68 W/m² | - |
| 1777419718 | 26.67° C | 97% | 1013 hPa | 0 mm | - | 102 W/m² | - |
| 1777419417 | 26.67° C | 98% | 1012 hPa | 0 mm | - | 121 W/m² | - |
| 1777419119 | 26.67° C | 98% | 1012 hPa | 1.27 mm | - | 134 W/m² | - |
| 1777418817 | 26.11° C | 98% | 1012 hPa | 3.05 mm | - | 141 W/m² | - |
| 1777418518 | 26.11° C | 98% | 1012 hPa | 3.05 mm | - | 76 W/m² | - |
| 1777418218 | 26.11° C | 98% | 1012 hPa | 3.05 mm | - | 36 W/m² | - |
| 1777417918 | 26.11° C | 98% | 1012 hPa | 3.05 mm | - | 25 W/m² | - |
| 1777417618 | 26.11° C | 97% | 1012 hPa | 1.27 mm | - | 24 W/m² | - |
| 1777417317 | 26.11° C | 98% | 1012 hPa | 0 mm | - | 34 W/m² | - |
| 1777417017 | 26.11° C | 98% | 1012 hPa | 0 mm | - | 36 W/m² | - |
| 1777416717 | 26.11° C | 98% | 1011 hPa | 1.78 mm | - | 32 W/m² | - |
| 1777416418 | 26.11° C | 98% | 1011 hPa | 1.78 mm | - | 26 W/m² | - |
| 1777416117 | 26.11° C | 98% | 1011 hPa | 1.78 mm | - | 11 W/m² | - |
| 1777415818 | 26.11° C | 98% | 1011 hPa | 0 mm | - | 3 W/m² | - |
| 1777415517 | 26.11° C | 98% | 1011 hPa | 1.78 mm | - | 1 W/m² | - |
| 1777415217 | 26.11° C | 98% | 1011 hPa | 1.78 mm | - | 0 W/m² | - |
| 1777414918 | 26.11° C | 98% | 1011 hPa | 0 mm | - | 0 W/m² | - |
| 1777414617 | 26.11° C | 97% | 1011 hPa | 0 mm | - | 0 W/m² | - |
| 1777414318 | 26.11° C | 97% | 1011 hPa | 1.27 mm | - | 0 W/m² | - |
| 1777414017 | 26.11° C | 97% | 1011 hPa | 1.27 mm | - | 0 W/m² | - |
| 1777413717 | 26.11° C | 97% | 1011 hPa | 0 mm | - | 0 W/m² | - |
| 1777413417 | 25.56° C | 97% | 1011 hPa | 0 mm | - | 0 W/m² | - |
| 1777413118 | 25.56° C | 98% | 1011 hPa | 0 mm | - | 0 W/m² | - |
| 1777412817 | 25.56° C | 98% | 1011 hPa | 0 mm | - | 0 W/m² | - |
* Rain latest hour (hover to see other rain measurements)
** Current wind speed in m/s (hover to see current wind gust speed)